^^

..:: Storico WU ::..




Lo storico viene creato da WUnderground con i dati che la stazione Meteomincio invia al loro server. L' aggiornamento viene fatto ogni 5 minuti circa, tuttavia possono esserci intervalli pił ampi a causa di errori, interruzioni di servizio o problemi nell' invio tramite FTP.


Storico stazione MeteoMincio
Giorno Sommario per Gennaio 12, 2022 Unità:  Inglese    Metrico   Entrambi
Giorno Settimana Mese Anno
  Max: Min: Media:
Temperatura: 46.4 °F 24.8 °F 33.6 °F
Dew Point: 37.4 °F 24.8 °F 29.8 °F
Umidità: 95% 65% 87%
Velocità vento: 8.7mph 0mph 3mph
Raffica: 10.6mph - -
Direzione- - West
Pressione: 30.6 in 30.4 in -
Precipitazioni: 0.01 in    
 
 
Tabulato Dati per Gennaio 12, 2022
Ora Temperatura Dew Point Pressione Direzione Velocità vento Raffica Umidità Intensità pioggia (oraria) Info solare Situazione
00:04 30.2 °F 30.2 °F 30.4 in ENE 2.5 mph 5 mph 95% 0 in 0.00 W/m2 unknown
00:09 30.2 °F 30.2 °F 30.4 in NE 3.1 mph 3.7 mph 95% 0 in 0.00 W/m2 unknown
00:14 32 °F 30.2 °F 30.4 in NE 2.5 mph 3.7 mph 95% 0 in 0.00 W/m2 unknown
00:19 32 °F 30.2 °F 30.4 in NE 2.5 mph 3.7 mph 95% 0 in 0.00 W/m2 unknown
00:24 30.2 °F 30.2 °F 30.4 in East 3.1 mph 3.7 mph 95% 0 in 0.00 W/m2 unknown
00:29 30.2 °F 28.4 °F 30.4 in ESE 3.7 mph 3.7 mph 95% 0 in 0.00 W/m2 unknown
00:34 30.2 °F 28.4 °F 30.4 in ESE 3.1 mph 3.7 mph 95% 0 in 0.00 W/m2 unknown
00:39 30.2 °F 28.4 °F 30.4 in ESE 3.1 mph 3.7 mph 95% 0 in 0.00 W/m2 unknown
00:44 30.2 °F 28.4 °F 30.4 in ESE 2.5 mph 3.7 mph 95% 0 in 0.00 W/m2 unknown
00:49 30.2 °F 28.4 °F 30.4 in ESE 3.1 mph 3.7 mph 95% 0 in 0.00 W/m2 unknown
00:54 30.2 °F 28.4 °F 30.4 in East 3.7 mph 5 mph 95% 0 in 0.00 W/m2 unknown
00:59 30.2 °F 28.4 °F 30.4 in East 3.7 mph 5 mph 95% 0 in 0.00 W/m2 unknown
01:04 30.2 °F 28.4 °F 30.4 in East 1.2 mph 5 mph 95% 0 in 0.00 W/m2 unknown
01:09 30.2 °F 28.4 °F 30.4 in East 1.9 mph 3.1 mph 95% 0 in 0.00 W/m2 unknown
01:14 30.2 °F 28.4 °F 30.4 in ESE 3.1 mph 3.7 mph 94% 0 in 0.00 W/m2 unknown
01:19 30.2 °F 28.4 °F 30.4 in East 1.2 mph 3.7 mph 95% 0 in 0.00 W/m2 unknown
01:24 30.2 °F 28.4 °F 30.4 in ENE 1.9 mph 3.1 mph 94% 0 in 0.00 W/m2 unknown
01:29 30.2 °F 28.4 °F 30.4 in NW 1.9 mph 3.7 mph 94% 0 in 0.00 W/m2 unknown
01:34 30.2 °F 28.4 °F 30.4 in NW 0.6 mph 3.1 mph 94% 0 in 0.00 W/m2 unknown
01:39 30.2 °F 28.4 °F 30.4 in NW 2.5 mph 3.7 mph 94% 0 in 0.00 W/m2 unknown
01:44 30.2 °F 28.4 °F 30.4 in North 1.9 mph 3.1 mph 93% 0 in 0.00 W/m2 unknown
01:49 30.2 °F 28.4 °F 30.4 in North 1.9 mph 2.5 mph 93% 0 in 0.00 W/m2 unknown
01:54 30.2 °F 28.4 °F 30.4 in NNE 1.9 mph 2.5 mph 93% 0 in 0.00 W/m2 unknown
01:59 28.4 °F 28.4 °F 30.4 in NNE 1.9 mph 3.7 mph 94% 0 in 0.00 W/m2 unknown
02:04 28.4 °F 28.4 °F 30.4 in North 1.9 mph 3.1 mph 94% 0 in 0.00 W/m2 unknown
02:09 28.4 °F 28.4 °F 30.4 in North 1.2 mph 2.5 mph 94% 0 in 0.00 W/m2 unknown
02:14 28.4 °F 26.6 °F 30.4 in North 1.2 mph 2.5 mph 94% 0 in 0.00 W/m2 unknown
02:19 28.4 °F 26.6 °F 30.4 in NNE 1.2 mph 2.5 mph 94% 0 in 0.00 W/m2 unknown
02:24 28.4 °F 26.6 °F 30.4 in NNE 1.2 mph 2.5 mph 94% 0 in 0.00 W/m2 unknown
02:29 28.4 °F 26.6 °F 30.4 in Calm   1.2 mph 94% 0 in 0.00 W/m2 unknown
02:34 28.4 °F 26.6 °F 30.4 in WNW 2.5 mph 3.7 mph 93% 0 in 0.00 W/m2 unknown
02:39 26.6 °F 24.8 °F 30.4 in WNW 3.1 mph 3.7 mph 94% 0 in 0.00 W/m2 unknown
02:44 26.6 °F 26.6 °F 30.4 in NW 2.5 mph 3.7 mph 94% 0 in 0.00 W/m2 unknown
02:49 26.6 °F 26.6 °F 30.4 in NW 1.9 mph 3.7 mph 94% 0 in 0.00 W/m2 unknown
02:54 28.4 °F 26.6 °F 30.4 in NW 3.1 mph 3.7 mph 94% 0 in 0.00 W/m2 unknown
02:59 26.6 °F 26.6 °F 30.4 in NW 2.5 mph 3.7 mph 93% 0 in 0.00 W/m2 unknown
03:04 26.6 °F 24.8 °F 30.4 in WNW 3.1 mph 3.7 mph 93% 0 in 0.00 W/m2 unknown
03:09 26.6 °F 24.8 °F 30.4 in WNW 3.7 mph 5 mph 93% 0 in 0.00 W/m2 unknown
03:14 26.6 °F 24.8 °F 30.4 in WNW 3.7 mph 5 mph 93% 0 in 0.00 W/m2 unknown
03:19 24.8 °F 24.8 °F 30.4 in WNW 3.1 mph 5 mph 94% 0 in 0.00 W/m2 unknown
03:24 26.6 °F 24.8 °F 30.4 in WNW 1.2 mph 3.7 mph 94% 0 in 0.00 W/m2 unknown
03:29 26.6 °F 24.8 °F 30.4 in WNW 1.9 mph 2.5 mph 94% 0 in 0.00 W/m2 unknown
03:34 26.6 °F 24.8 °F 30.4 in Calm   1.9 mph 94% 0 in 0.00 W/m2 unknown
03:39 26.6 °F 24.8 °F 30.4 in Calm   1.2 mph 95% 0 in 0.00 W/m2 unknown
03:44 26.6 °F 24.8 °F 30.4 in Calm     94% 0 in 0.00 W/m2 unknown
03:49 26.6 °F 24.8 °F 30.4 in WNW 2.5 mph 3.7 mph 94% 0 in 0.00 W/m2 unknown
03:54 26.6 °F 24.8 °F 30.4 in WNW 3.1 mph 3.7 mph 94% 0 in 0.00 W/m2 unknown
03:59 26.6 °F 24.8 °F 30.4 in NW 3.1 mph 3.7 mph 94% 0 in 0.00 W/m2 unknown
04:04 26.6 °F 24.8 °F 30.4 in WNW 3.1 mph 3.7 mph 94% 0 in 0.00 W/m2 unknown
04:09 26.6 °F 24.8 °F 30.4 in West 2.5 mph 3.7 mph 94% 0 in 0.00 W/m2 unknown
04:14 26.6 °F 24.8 °F 30.4 in West 2.5 mph 3.7 mph 94% 0 in 0.00 W/m2 unknown
04:19 26.6 °F 24.8 °F 30.4 in West 1.9 mph 2.5 mph 94% 0 in 0.00 W/m2 unknown
04:24 26.6 °F 24.8 °F 30.4 in West 2.5 mph 3.7 mph 94% 0 in 0.00 W/m2 unknown
04:29 26.6 °F 24.8 °F 30.4 in West 2.5 mph 3.7 mph 94% 0 in 0.00 W/m2 unknown
04:34 26.6 °F 24.8 °F 30.4 in West 2.5 mph 3.7 mph 94% 0 in 0.00 W/m2 unknown
04:39 26.6 °F 24.8 °F 30.4 in West 3.1 mph 3.7 mph 94% 0 in 0.00 W/m2 unknown
04:44 26.6 °F 24.8 °F 30.4 in WNW 3.1 mph 3.7 mph 95% 0 in 0.00 W/m2 unknown
04:49 26.6 °F 24.8 °F 30.4 in NW 3.1 mph 3.7 mph 95% 0 in 0.00 W/m2 unknown
04:54 26.6 °F 24.8 °F 30.4 in WNW 2.5 mph 3.7 mph 95% 0 in 0.00 W/m2 unknown
04:59 26.6 °F 24.8 °F 30.4 in West 1.9 mph 3.1 mph 95% 0 in 0.00 W/m2 unknown
05:04 26.6 °F 24.8 °F 30.4 in West 2.5 mph 3.7 mph 94% 0 in 0.00 W/m2 unknown
05:09 26.6 °F 24.8 °F 30.4 in West 1.2 mph 3.1 mph 94% 0 in 0.00 W/m2 unknown
05:14 26.6 °F 24.8 °F 30.4 in West 1.2 mph 2.5 mph 94% 0 in 0.00 W/m2 unknown
05:19 26.6 °F 24.8 °F 30.4 in Calm   1.2 mph 94% 0 in 0.00 W/m2 unknown
05:24 26.6 °F 24.8 °F 30.4 in Calm     94% 0 in 0.00 W/m2 unknown
05:29 26.6 °F 24.8 °F 30.4 in Calm     94% 0 in 0.00 W/m2 unknown
05:34 26.6 °F 24.8 °F 30.4 in Calm     94% 0 in 0.00 W/m2 unknown
05:39 26.6 °F 24.8 °F 30.4 in Calm     94% 0 in 0.00 W/m2 unknown
05:44 26.6 °F 24.8 °F 30.4 in WSW 2.5 mph 3.7 mph 93% 0 in 0.00 W/m2 unknown
05:49 24.8 °F 24.8 °F 30.4 in West 2.5 mph 3.7 mph 94% 0 in 0.00 W/m2 unknown
05:54 26.6 °F 24.8 °F 30.4 in West 2.5 mph 3.7 mph 95% 0 in 0.00 W/m2 unknown
05:59 26.6 °F 24.8 °F 30.4 in West 3.1 mph 3.7 mph 95% 0 in 0.00 W/m2 unknown
06:04 26.6 °F 24.8 °F 30.4 in WSW 3.7 mph 3.7 mph 94% 0 in 0.00 W/m2 unknown
06:09 26.6 °F 24.8 °F 30.4 in West 3.7 mph 5 mph 94% 0 in 0.00 W/m2 unknown
06:14 26.6 °F 24.8 °F 30.4 in West 3.1 mph 5 mph 95% 0 in 0.00 W/m2 unknown
06:19 26.6 °F 24.8 °F 30.4 in WSW 2.5 mph 3.7 mph 95% 0 in 0.00 W/m2 unknown
06:24 26.6 °F 24.8 °F 30.4 in SW 1.9 mph 3.7 mph 94% 0 in 0.00 W/m2 unknown
06:29 26.6 °F 24.8 °F 30.4 in NW 1.9 mph 3.7 mph 94% 0 in 0.00 W/m2 unknown
06:34 26.6 °F 24.8 °F 30.4 in NW 1.9 mph 3.1 mph 95% 0 in 0.00 W/m2 unknown
06:39 26.6 °F 24.8 °F 30.4 in NW 1.2 mph 2.5 mph 95% 0 in 0.00 W/m2 unknown
06:44 26.6 °F 24.8 °F 30.4 in WNW 1.9 mph 2.5 mph 94% 0 in 0.00 W/m2 unknown
06:49 24.8 °F 24.8 °F 30.4 in WNW 2.5 mph 3.7 mph 94% 0 in 0.00 W/m2 unknown
06:54 24.8 °F 24.8 °F 30.4 in WNW 1.9 mph 3.1 mph 94% 0 in 0.00 W/m2 unknown
06:59 24.8 °F 24.8 °F 30.4 in WNW 2.5 mph 3.7 mph 94% 0 in 0.00 W/m2 unknown
07:04 24.8 °F 24.8 °F 30.4 in NW 3.1 mph 3.7 mph 95% 0 in 0.00 W/m2 unknown
07:09 26.6 °F 24.8 °F 30.4 in WNW 3.1 mph 3.7 mph 95% 0 in 0.00 W/m2 unknown
07:14 26.6 °F 24.8 °F 30.4 in West 2.5 mph 3.7 mph 95% 0 in 0.00 W/m2 unknown
07:19 26.6 °F 24.8 °F 30.4 in WNW 3.7 mph 5 mph 94% 0 in 0.00 W/m2 unknown
07:24 26.6 °F 24.8 °F 30.4 in NW 3.7 mph 5 mph 95% 0 in 0.00 W/m2 unknown
07:29 26.6 °F 24.8 °F 30.4 in NW 1.9 mph 5 mph 95% 0 in 0.00 W/m2 unknown
07:34 26.6 °F 24.8 °F 30.4 in NW 3.1 mph 3.7 mph 95% 0 in 0.00 W/m2 unknown
07:39 26.6 °F 24.8 °F 30.4 in NW 2.5 mph 3.7 mph 95% 0 in 0.00 W/m2 unknown
07:44 26.6 °F 24.8 °F 30.5 in NW 1.9 mph 3.1 mph 94% 0 in 0.00 W/m2 unknown
07:49 26.6 °F 24.8 °F 30.5 in NW 1.2 mph 2.5 mph 94% 0 in 0.00 W/m2 unknown
07:54 26.6 °F 24.8 °F 30.5 in NW 1.2 mph 2.5 mph 94% 0 in 0.00 W/m2 unknown
07:59 26.6 °F 24.8 °F 30.5 in NW 1.9 mph 2.5 mph 94% 0 in 5.00 W/m2 unknown
08:04 26.6 °F 24.8 °F 30.5 in NW 1.9 mph 2.5 mph 94% 0 in 7.00 W/m2 unknown
08:09 26.6 °F 24.8 °F 30.5 in NNW 1.9 mph 3.7 mph 95% 0 in 9.00 W/m2 unknown
08:14 26.6 °F 24.8 °F 30.5 in NNW 2.5 mph 3.7 mph 95% 0 in 11.00 W/m2 unknown
08:19 26.6 °F 24.8 °F 30.5 in NNW 1.9 mph 3.7 mph 94% 0 in 12.00 W/m2 unknown
08:24 26.6 °F 24.8 °F 30.5 in NNW 1.9 mph 3.7 mph 94% 0 in 14.00 W/m2 unknown
08:29 26.6 °F 26.6 °F 30.5 in NNW 1.9 mph 3.7 mph 94% 0 in 18.00 W/m2 unknown
08:34 26.6 °F 24.8 °F 30.5 in NNW 1.9 mph 3.1 mph 93% 0 in 19.00 W/m2 unknown
08:39 26.6 °F 24.8 °F 30.5 in NW 2.5 mph 3.7 mph 93% 0 in 21.00 W/m2 unknown
08:44 26.6 °F 24.8 °F 30.5 in NW 3.1 mph 3.7 mph 94% 0 in 23.00 W/m2 unknown
08:49 28.4 °F 26.6 °F 30.5 in NW 1.9 mph 3.7 mph 94% 0 in 25.00 W/m2 unknown
08:54 28.4 °F 26.6 °F 30.5 in NW 1.2 mph 3.1 mph 94% 0 in 26.00 W/m2 unknown
08:59 28.4 °F 26.6 °F 30.5 in NW 1.2 mph 2.5 mph 93% 0 in 28.00 W/m2 unknown
09:04 28.4 °F 26.6 °F 30.5 in NW 1.2 mph 2.5 mph 94% 0 in 30.00 W/m2 unknown
09:09 28.4 °F 26.6 °F 30.5 in Calm   1.9 mph 93% 0 in 32.00 W/m2 unknown
09:14 28.4 °F 26.6 °F 30.5 in Calm     94% 0 in 84.00 W/m2 unknown
09:19 30.2 °F 28.4 °F 30.5 in NW 1.9 mph 2.5 mph 93% 0 in 113.00 W/m2 unknown
09:24 30.2 °F 28.4 °F 30.5 in NW 1.9 mph 2.5 mph 93% 0 in 132.00 W/m2 unknown
09:29 32 °F 28.4 °F 30.5 in NW 3.1 mph 3.7 mph 93% 0 in 132.00 W/m2 unknown
09:34 32 °F 30.2 °F 30.5 in WNW 3.1 mph 3.7 mph 90% 0 in 109.00 W/m2 unknown
09:39 32 °F 30.2 °F 30.5 in WNW 3.1 mph 3.7 mph 90% 0 in 163.00 W/m2 unknown
09:44 32 °F 30.2 °F 30.5 in WNW 3.1 mph 3.7 mph 89% 0 in 179.00 W/m2 unknown
09:49 33.8 °F 30.2 °F 30.5 in WNW 3.1 mph 3.7 mph 89% 0 in 207.00 W/m2 unknown
09:54 33.8 °F 30.2 °F 30.5 in WNW 2.5 mph 3.7 mph 89% 0.01 in 234.00 W/m2 unknown
09:59 33.8 °F 30.2 °F 30.5 in WNW 3.1 mph 3.7 mph 88% 0.01 in 248.00 W/m2 unknown
10:04 33.8 °F 32 °F 30.5 in WNW 3.7 mph 5 mph 88% 0.01 in 251.00 W/m2 unknown
10:09 35.6 °F 32 °F 30.5 in WNW 3.1 mph 3.7 mph 88% 0.01 in 260.00 W/m2 unknown
10:14 35.6 °F 32 °F 30.5 in NW 3.1 mph 3.7 mph 88% 0.01 in 264.00 W/m2 unknown
10:19 37.4 °F 33.8 °F 30.5 in WNW 5 mph 6.2 mph 88% 0.01 in 264.00 W/m2 unknown
10:24 37.4 °F 33.8 °F 30.5 in WNW 5 mph 8.1 mph 86% 0.01 in 279.00 W/m2 unknown
10:29 37.4 °F 33.8 °F 30.5 in WNW 5.6 mph 8.1 mph 84% 0.01 in 287.00 W/m2 unknown
10:34 39.2 °F 33.8 °F 30.5 in WNW 5 mph 8.1 mph 82% 0.01 in 295.00 W/m2 unknown
10:39 39.2 °F 33.8 °F 30.5 in WNW 5 mph 6.8 mph 81% 0.01 in 302.00 W/m2 unknown
10:44 39.2 °F 33.8 °F 30.5 in WNW 5 mph 6.8 mph 81% 0.01 in 313.00 W/m2 unknown
10:49 39.2 °F 33.8 °F 30.5 in West 5 mph 6.8 mph 82% 0.01 in 318.00 W/m2 unknown
10:54 39.2 °F 35.6 °F 30.5 in West 4.3 mph 6.2 mph 82% 0.01 in 325.00 W/m2 unknown
10:59 39.2 °F 35.6 °F 30.5 in West 5 mph 6.2 mph 83% 0 in 334.00 W/m2 unknown
11:04 41 °F 35.6 °F 30.5 in West 5.6 mph 6.8 mph 82% 0 in 341.00 W/m2 unknown
11:09 41 °F 33.8 °F 30.5 in WNW 5.6 mph 6.8 mph 79% 0 in 348.00 W/m2 unknown
11:14 41 °F 35.6 °F 30.5 in West 5.6 mph 8.1 mph 79% 0 in 350.00 W/m2 unknown
11:19 41 °F 35.6 °F 30.5 in West 5.6 mph 8.1 mph 78% 0 in 357.00 W/m2 unknown
11:24 41 °F 35.6 °F 30.5 in West 6.2 mph 8.1 mph 80% 0 in 360.00 W/m2 unknown
11:29 41 °F 35.6 °F 30.5 in West 6.2 mph 8.1 mph 80% 0 in 364.00 W/m2 unknown
11:34 41 °F 35.6 °F 30.5 in West 6.2 mph 8.1 mph 79% 0 in 369.00 W/m2 unknown
11:39 41 °F 35.6 °F 30.5 in West 6.2 mph 8.7 mph 80% 0 in 371.00 W/m2 unknown
11:44 41 °F 35.6 °F 30.5 in WSW 6.2 mph 8.7 mph 82% 0 in 376.00 W/m2 unknown
11:49 41 °F 35.6 °F 30.5 in West 6.2 mph 8.1 mph 82% 0 in 380.00 W/m2 unknown
11:54 42.8 °F 37.4 °F 30.5 in West 5 mph 6.8 mph 81% 0 in 381.00 W/m2 unknown
11:59 42.8 °F 37.4 °F 30.5 in West 6.8 mph 9.3 mph 81% 0 in 385.00 W/m2 unknown
12:04 42.8 °F 35.6 °F 30.5 in WNW 8.7 mph 10.6 mph 80% 0 in 385.00 W/m2 unknown
12:09 42.8 °F 35.6 °F 30.5 in WNW 8.1 mph 10.6 mph 78% 0 in 387.00 W/m2 unknown
12:14 42.8 °F 35.6 °F 30.5 in West 6.2 mph 9.9 mph 78% 0 in 388.00 W/m2 unknown
12:19 42.8 °F 35.6 °F 30.5 in West 6.2 mph 8.1 mph 78% 0 in 390.00 W/m2 unknown
12:24 42.8 °F 37.4 °F 30.5 in WNW 6.2 mph 8.1 mph 78% 0 in 396.00 W/m2 unknown
12:29 42.8 °F 35.6 °F 30.5 in WNW 6.8 mph 9.9 mph 77% 0 in 394.00 W/m2 unknown
12:34 42.8 °F 37.4 °F 30.5 in WNW 8.1 mph 10.6 mph 77% 0 in 394.00 W/m2 unknown
12:39 42.8 °F 37.4 °F 30.5 in WNW 8.7 mph 10.6 mph 77% 0 in 394.00 W/m2 unknown
12:44 44.6 °F 35.6 °F 30.5 in WNW 6.2 mph 9.9 mph 75% 0 in 396.00 W/m2 unknown
12:49 44.6 °F 35.6 °F 30.5 in WNW 6.2 mph 8.1 mph 74% 0 in 394.00 W/m2 unknown
12:54 44.6 °F 37.4 °F 30.5 in WNW 7.5 mph 9.3 mph 74% 0 in 397.00 W/m2 unknown
12:59 44.6 °F 35.6 °F 30.5 in West 6.8 mph 9.9 mph 71% 0 in 396.00 W/m2 unknown
13:04 44.6 °F 35.6 °F 30.5 in WNW 7.5 mph 10.6 mph 72% 0 in 394.00 W/m2 unknown
13:09 44.6 °F 35.6 °F 30.5 in WNW 7.5 mph 9.9 mph 72% 0 in 392.00 W/m2 unknown
13:14 44.6 °F 35.6 °F 30.5 in WNW 6.2 mph 9.3 mph 70% 0 in 387.00 W/m2 unknown
13:19 44.6 °F 35.6 °F 30.5 in WNW 6.8 mph 9.3 mph 70% 0 in 383.00 W/m2 unknown
13:24 44.6 °F 35.6 °F 30.5 in West 6.2 mph 8.7 mph 69% 0 in 381.00 W/m2 unknown
13:29 44.6 °F 35.6 °F 30.5 in West 6.8 mph 9.3 mph 70% 0 in 380.00 W/m2 unknown
13:34 44.6 °F 35.6 °F 30.5 in West 6.8 mph 8.7 mph 70% 0 in 373.00 W/m2 unknown
13:39 44.6 °F 35.6 °F 30.5 in West 6.2 mph 6.8 mph 70% 0 in 369.00 W/m2 unknown
13:44 44.6 °F 35.6 °F 30.5 in West 6.2 mph 6.8 mph 71% 0 in 364.00 W/m2 unknown
13:49 44.6 °F 37.4 °F 30.5 in West 6.2 mph 8.1 mph 72% 0 in 359.00 W/m2 unknown
13:54 44.6 °F 35.6 °F 30.5 in West 6.2 mph 8.1 mph 71% 0 in 353.00 W/m2 unknown
13:59 46.4 °F 37.4 °F 30.5 in WSW 5.6 mph 8.1 mph 71% 0 in 348.00 W/m2 unknown
14:04 46.4 °F 35.6 °F 30.5 in West 6.2 mph 8.1 mph 70% 0 in 343.00 W/m2 unknown
14:09 44.6 °F 35.6 °F 30.5 in WSW 6.2 mph 6.8 mph 70% 0 in 338.00 W/m2 unknown
14:14 46.4 °F 37.4 °F 30.5 in WSW 6.2 mph 6.8 mph 71% 0 in 330.00 W/m2 unknown
14:19 46.4 °F 35.6 °F 30.5 in WSW 6.2 mph 8.1 mph 70% 0 in 323.00 W/m2 unknown
14:24 46.4 °F 37.4 °F 30.5 in WSW 6.2 mph 8.1 mph 71% 0 in 320.00 W/m2 unknown
14:29 46.4 °F 35.6 °F 30.5 in West 6.2 mph 8.1 mph 70% 0 in 309.00 W/m2 unknown
14:34 46.4 °F 35.6 °F 30.5 in WSW 5.6 mph 8.1 mph 69% 0 in 302.00 W/m2 unknown
14:39 46.4 °F 35.6 °F 30.5 in WSW 6.8 mph 8.1 mph 68% 0 in 295.00 W/m2 unknown
14:44 46.4 °F 35.6 °F 30.5 in West 6.8 mph 9.3 mph 68% 0 in 287.00 W/m2 unknown
14:49 46.4 °F 35.6 °F 30.5 in West 5 mph 8.7 mph 68% 0 in 276.00 W/m2 unknown
14:54 46.4 °F 35.6 °F 30.5 in West 5 mph 6.8 mph 67% 0 in 267.00 W/m2 unknown
14:59 46.4 °F 35.6 °F 30.5 in WNW 5.6 mph 6.8 mph 68% 0 in 257.00 W/m2 unknown
15:04 46.4 °F 35.6 °F 30.5 in West 6.8 mph 8.1 mph 67% 0 in 248.00 W/m2 unknown
15:09 46.4 °F 35.6 °F 30.5 in West 6.2 mph 8.1 mph 65% 0 in 239.00 W/m2 unknown
15:14 46.4 °F 35.6 °F 30.5 in West 5.6 mph 8.1 mph 66% 0 in 229.00 W/m2 unknown
15:19 46.4 °F 35.6 °F 30.5 in West 5 mph 6.8 mph 67% 0 in 216.00 W/m2 unknown
15:24 46.4 °F 35.6 °F 30.5 in West 4.3 mph 6.8 mph 67% 0 in 200.00 W/m2 unknown
15:29 46.4 °F 35.6 °F 30.5 in West 4.3 mph 6.2 mph 67% 0 in 183.00 W/m2 unknown
15:34 44.6 °F 35.6 °F 30.5 in West 3.1 mph 6.2 mph 68% 0 in 179.00 W/m2 unknown
15:39 44.6 °F 35.6 °F 30.5 in WSW 3.7 mph 5 mph 68% 0 in 165.00 W/m2 unknown
15:44 44.6 °F 35.6 °F 30.5 in WSW 3.7 mph 5 mph 69% 0 in 155.00 W/m2 unknown
15:49 44.6 °F 35.6 °F 30.5 in West 4.3 mph 6.2 mph 69% 0 in 141.00 W/m2 unknown
15:54 44.6 °F 35.6 °F 30.5 in West 3.7 mph 6.2 mph 69% 0 in 127.00 W/m2 unknown
15:59 44.6 °F 35.6 °F 30.5 in West 3.1 mph 5 mph 70% 0 in 113.00 W/m2 unknown
16:04 44.6 °F 35.6 °F 30.5 in West 3.1 mph 3.7 mph 70% 0 in 32.00 W/m2 unknown
16:09 44.6 °F 35.6 °F 30.5 in West 2.5 mph 3.7 mph 70% 0 in 30.00 W/m2 unknown
16:14 44.6 °F 35.6 °F 30.5 in West 2.5 mph 3.7 mph 70% 0 in 28.00 W/m2 unknown
16:19 44.6 °F 35.6 °F 30.5 in West 1.9 mph 3.7 mph 72% 0 in 25.00 W/m2 unknown
16:24 42.8 °F 35.6 °F 30.5 in West 1.9 mph 3.7 mph 72% 0 in 23.00 W/m2 unknown
16:29 42.8 °F 35.6 °F 30.5 in West 1.9 mph 3.7 mph 73% 0 in 21.00 W/m2 unknown
16:34 42.8 °F 35.6 °F 30.5 in WSW 1.9 mph 3.1 mph 75% 0 in 19.00 W/m2 unknown
16:39 42.8 °F 35.6 °F 30.5 in WSW 1.2 mph 3.1 mph 76% 0 in 16.00 W/m2 unknown
16:44 42.8 °F 35.6 °F 30.5 in West 1.9 mph 3.1 mph 76% 0 in 12.00 W/m2 unknown
16:49 41 °F 35.6 °F 30.5 in West 1.9 mph 3.7 mph 77% 0 in 11.00 W/m2 unknown
16:54 41 °F 33.8 °F 30.5 in West 1.9 mph 3.1 mph 77% 0 in 7.00 W/m2 unknown
16:59 41 °F 33.8 °F 30.5 in West 1.9 mph 2.5 mph 77% 0 in 5.00 W/m2 unknown
17:04 39.2 °F 33.8 °F 30.5 in West 1.9 mph 3.7 mph 78% 0 in 0.00 W/m2 unknown
17:09 39.2 °F 33.8 °F 30.5 in West 2.5 mph 3.7 mph 78% 0 in 0.00 W/m2 unknown
17:14 39.2 °F 33.8 °F 30.5 in West 2.5 mph 3.7 mph 79% 0 in 0.00 W/m2 unknown
17:19 39.2 °F 32 °F 30.5 in WNW 1.9 mph 3.1 mph 81% 0 in 0.00 W/m2 unknown
17:24 37.4 °F 32 °F 30.5 in WNW 1.9 mph 3.7 mph 82% 0 in 0.00 W/m2 unknown
17:29 37.4 °F 32 °F 30.5 in WNW 1.2 mph 3.1 mph 82% 0 in 0.00 W/m2 unknown
17:34 37.4 °F 32 °F 30.5 in West 2.5 mph 3.7 mph 83% 0 in 0.00 W/m2 unknown
17:39 37.4 °F 32 °F 30.5 in WSW 2.5 mph 3.7 mph 84% 0 in 0.00 W/m2 unknown
17:44 37.4 °F 32 °F 30.5 in WSW 2.5 mph 3.7 mph 83% 0 in 0.00 W/m2 unknown
17:49 37.4 °F 32 °F 30.5 in WSW 2.5 mph 3.7 mph 83% 0 in 0.00 W/m2 unknown
17:54 37.4 °F 32 °F 30.5 in WSW 2.5 mph 3.7 mph 83% 0 in 0.00 W/m2 unknown
17:59 35.6 °F 32 °F 30.5 in WSW 1.2 mph 3.1 mph 83% 0 in 0.00 W/m2 unknown
18:04 35.6 °F 32 °F 30.5 in WSW 1.2 mph 2.5 mph 84% 0 in 0.00 W/m2 unknown
18:09 35.6 °F 32 °F 30.5 in WSW 1.2 mph 2.5 mph 85% 0 in 0.00 W/m2 unknown
18:14 35.6 °F 32 °F 30.5 in WSW 1.9 mph 2.5 mph 85% 0 in 0.00 W/m2 unknown
18:19 35.6 °F 32 °F 30.5 in WSW 1.9 mph 2.5 mph 85% 0 in 0.00 W/m2 unknown
18:24 35.6 °F 32 °F 30.5 in WSW 1.9 mph 2.5 mph 86% 0 in 0.00 W/m2 unknown
18:29 35.6 °F 30.2 °F 30.5 in WSW 1.9 mph 2.5 mph 86% 0 in 0.00 W/m2 unknown
18:34 35.6 °F 32 °F 30.5 in WSW 1.9 mph 3.7 mph 86% 0 in 0.00 W/m2 unknown
18:39 35.6 °F 30.2 °F 30.5 in WSW 1.9 mph 3.7 mph 86% 0 in 0.00 W/m2 unknown
18:44 35.6 °F 30.2 °F 30.5 in WSW 1.9 mph 3.1 mph 86% 0 in 0.00 W/m2 unknown
18:49 33.8 °F 30.2 °F 30.5 in WSW 1.9 mph 2.5 mph 87% 0 in 0.00 W/m2 unknown
18:54 33.8 °F 30.2 °F 30.5 in WSW 1.9 mph 3.7 mph 87% 0 in 0.00 W/m2 unknown
18:59 33.8 °F 30.2 °F 30.5 in WSW 1.9 mph 3.1 mph 87% 0 in 0.00 W/m2 unknown
19:04 33.8 °F 30.2 °F 30.5 in WSW 2.5 mph 3.7 mph 87% 0 in 0.00 W/m2 unknown
19:09 33.8 °F 30.2 °F 30.5 in WSW 2.5 mph 3.7 mph 88% 0 in 0.00 W/m2 unknown
19:14 33.8 °F 30.2 °F 30.5 in WSW 1.9 mph 3.1 mph 88% 0 in 0.00 W/m2 unknown
19:19 33.8 °F 30.2 °F 30.5 in West 1.9 mph 3.7 mph 88% 0 in 0.00 W/m2 unknown
19:24 33.8 °F 30.2 °F 30.5 in West 2.5 mph 3.1 mph 89% 0 in 0.00 W/m2 unknown
19:29 33.8 °F 30.2 °F 30.5 in West 2.5 mph 3.7 mph 89% 0 in 0.00 W/m2 unknown
19:34 33.8 °F 30.2 °F 30.5 in West 2.5 mph 3.7 mph 89% 0 in 0.00 W/m2 unknown
19:39 32 °F 30.2 °F 30.5 in West 1.2 mph 3.1 mph 89% 0 in 0.00 W/m2 unknown
19:44 32 °F 30.2 °F 30.5 in West 1.2 mph 1.9 mph 89% 0 in 0.00 W/m2 unknown
19:49 32 °F 30.2 °F 30.5 in Calm   1.2 mph 90% 0 in 0.00 W/m2 unknown
19:54 32 °F 30.2 °F 30.5 in WNW 1.9 mph 2.5 mph 90% 0 in 0.00 W/m2 unknown
19:59 32 °F 28.4 °F 30.5 in NW 1.9 mph 2.5 mph 90% 0 in 0.00 W/m2 unknown
20:04 32 °F 30.2 °F 30.5 in NW 1.9 mph 2.5 mph 91% 0 in 0.00 W/m2 unknown
20:09 32 °F 28.4 °F 30.5 in NW 1.9 mph 2.5 mph 90% 0 in 0.00 W/m2 unknown
20:14 32 °F 28.4 °F 30.5 in NW 1.9 mph 3.1 mph 91% 0 in 0.00 W/m2 unknown
20:19 32 °F 28.4 °F 30.5 in NW 1.9 mph 3.7 mph 91% 0 in 0.00 W/m2 unknown
20:24 30.2 °F 28.4 °F 30.5 in NW 1.9 mph 3.7 mph 92% 0 in 0.00 W/m2 unknown
20:29 32 °F 28.4 °F 30.5 in NW 1.9 mph 3.7 mph 92% 0 in 0.00 W/m2 unknown
20:34 32 °F 28.4 °F 30.5 in NW 1.9 mph 3.1 mph 92% 0 in 0.00 W/m2 unknown
20:39 30.2 °F 28.4 °F 30.5 in NW 2.5 mph 3.7 mph 91% 0 in 0.00 W/m2 unknown
20:44 30.2 °F 28.4 °F 30.5 in NW 2.5 mph 3.7 mph 92% 0 in 0.00 W/m2 unknown
20:49 30.2 °F 28.4 °F 30.5 in NW 3.7 mph 3.7 mph 92% 0 in 0.00 W/m2 unknown
20:54 32 °F 30.2 °F 30.5 in NW 4.3 mph 5 mph 92% 0 in 0.00 W/m2 unknown
20:59 32 °F 30.2 °F 30.5 in NW 3.1 mph 5 mph 91% 0 in 0.00 W/m2 unknown
21:04 32 °F 30.2 °F 30.5 in NW 2.5 mph 3.7 mph 91% 0 in 0.00 W/m2 unknown
21:09 32 °F 30.2 °F 30.5 in NW 2.5 mph 3.7 mph 90% 0 in 0.00 W/m2 unknown
21:14 32 °F 30.2 °F 30.5 in NW 1.9 mph 3.7 mph 90% 0 in 0.00 W/m2 unknown
21:19 32 °F 30.2 °F 30.5 in NW 1.9 mph 3.7 mph 90% 0 in 0.00 W/m2 unknown
21:24 32 °F 28.4 °F 30.5 in NW 2.5 mph 3.7 mph 90% 0 in 0.00 W/m2 unknown
21:29 32 °F 28.4 °F 30.5 in NW 2.5 mph 3.7 mph 91% 0 in 0.00 W/m2 unknown
21:34 32 °F 28.4 °F 30.5 in NW 2.5 mph 3.7 mph 91% 0 in 0.00 W/m2 unknown
21:39 32 °F 28.4 °F 30.5 in NW 3.1 mph 3.7 mph 91% 0 in 0.00 W/m2 unknown
21:44 32 °F 28.4 °F 30.5 in NW 3.1 mph 3.7 mph 91% 0 in 0.00 W/m2 unknown
21:49 32 °F 28.4 °F 30.5 in NW 2.5 mph 3.7 mph 90% 0 in 0.00 W/m2 unknown
21:54 32 °F 28.4 °F 30.5 in WNW 2.5 mph 3.7 mph 90% 0 in 0.00 W/m2 unknown
21:59 32 °F 28.4 °F 30.5 in NW 1.9 mph 3.7 mph 90% 0 in 0.00 W/m2 unknown
22:04 32 °F 28.4 °F 30.6 in NW 1.2 mph 3.1 mph 91% 0 in 0.00 W/m2 unknown
22:09 30.2 °F 28.4 °F 30.6 in NW 1.9 mph 2.5 mph 91% 0 in 0.00 W/m2 unknown
22:14 30.2 °F 28.4 °F 30.6 in WNW 1.9 mph 2.5 mph 91% 0 in 0.00 W/m2 unknown
22:19 30.2 °F 28.4 °F 30.6 in WNW 1.9 mph 2.5 mph 91% 0 in 0.00 W/m2 unknown
22:24 30.2 °F 28.4 °F 30.6 in WNW 1.2 mph 2.5 mph 92% 0 in 0.00 W/m2 unknown
22:29 30.2 °F 28.4 °F 30.6 in Calm   1.9 mph 92% 0 in 0.00 W/m2 unknown
22:34 30.2 °F 28.4 °F 30.6 in Calm     92% 0 in 0.00 W/m2 unknown
22:39 30.2 °F 28.4 °F 30.6 in Calm     92% 0 in 0.00 W/m2 unknown
22:44 30.2 °F 28.4 °F 30.6 in Calm     92% 0 in 0.00 W/m2 unknown
22:49 30.2 °F 28.4 °F 30.6 in Calm     92% 0 in 0.00 W/m2 unknown
22:54 30.2 °F 28.4 °F 30.6 in Calm     93% 0 in 0.00 W/m2 unknown
22:59 28.4 °F 26.6 °F 30.6 in Calm     93% 0 in 0.00 W/m2 unknown
23:04 30.2 °F 28.4 °F 30.6 in Calm     93% 0 in 0.00 W/m2 unknown
23:09 28.4 °F 26.6 °F 30.6 in Calm     93% 0 in 0.00 W/m2 unknown
23:14 28.4 °F 26.6 °F 30.6 in Calm     93% 0 in 0.00 W/m2 unknown
23:19 28.4 °F 26.6 °F 30.6 in Calm     93% 0 in 0.00 W/m2 unknown
23:24 28.4 °F 26.6 °F 30.6 in Calm     93% 0 in 0.00 W/m2 unknown
23:29 28.4 °F 26.6 °F 30.6 in SSW 3.1 mph 3.7 mph 93% 0 in 0.00 W/m2 unknown
23:34 28.4 °F 26.6 °F 30.6 in SW 3.1 mph 3.7 mph 93% 0 in 0.00 W/m2 unknown
23:39 28.4 °F 26.6 °F 30.6 in SW 3.1 mph 3.7 mph 93% 0 in 0.00 W/m2 unknown
23:44 28.4 °F 26.6 °F 30.6 in WSW 1.9 mph 3.1 mph 93% 0 in 0.00 W/m2 unknown
23:49 28.4 °F 26.6 °F 30.6 in WSW 2.5 mph 3.7 mph 93% 0 in 0.00 W/m2 unknown
23:54 28.4 °F 26.6 °F 30.6 in WSW 2.5 mph 3.7 mph 93% 0 in 0.00 W/m2 unknown
23:59 28.4 °F 26.6 °F 30.6 in SW 2.5 mph 3.7 mph 93% 0 in 0.00 W/m2 unknown
Stazione Meteorologica MeteoMincio Rivalta s/M (MN)
Con i complimenti di Weather Underground - 4 mb



METEO PILLOLE
Il nevaio perenne più meridionale d'Europa sotto i 1500 m
Fondo della Salsa, Teramo, Abruzzo, Italia:
Si estende tra circa 1100 m e circa 1200 m di quota. Riceve neve in grosse quantità per accumuli valanghivi provenienti dalla sovrastante e quasi verticale parete nord del Monte Camicia, 2565 m, nel gruppo montuoso del Gran Sasso d'Italia. Riceve pochissime ore di sole unicamente in piena estate, restando totalmente in ombra per la maggior parte dell'anno.
Share

Non seguire questo link o sarai bannato dal sito!